PSLV R/B, 40548

Orbit data source: Space-Track

PSLV R/B, 40548 is space debris in HEO originally from a launch on Sat, 28 Mar 2015 UTC launched from the Sirharikota (SRI). Debris objects in space refer to the collection of defunct objects orbiting the Earth. Examples of debris include non-operational satellites, rocket bodies, and fragments generated from explosions, collisions, or faulty payload assembly.

Loading next visibility...
Identifier
40548, 2015-018B
Orbit
HEO
Country
Flag of ININ / IND
Related business
Manufacturer
VSSC/LPSC
Mission
Spacecraft
Bus & Motor
PS-4, Unknown motor
Mass
920 kg wet, 920 kg dry
Launch date (UTC)
2015-03-28 (11 years ago)
Launch vehicle
Unknown
Launch site
Sirharikota (SRI)
Object type
Payload
Rocket body
Debris
Shape & HBR
Cyl + Cyl + 2 Nozzle, 1.5 m
Radar Cross Section
3.727 m², Large (>1 m²)

Expand to show TLE details & history
Last TLE update: 11 hours ago

TLE from 11 hours ago
0 PSLV R/B
1 40548U 15018B   26095.41949360  .00028606  00000-0  21932-2 0  9995
2 40548  19.0081 227.5781 5751106 143.1878 275.2636  4.46564670165354
Epoch: 2026-04-05T10:04Z
TLE epoch observation values (Epoch: 2026-04-05T10:04:04.247Z)
Latitude
0.00003°
Longitude
-117.20827°
Altitude
12,942.704 km
Speed
3.959 km/s
True Right ascension
15h 10m 08s
True Declination
0° 00' 00"
Sunlit
Object was in daylight at epoch
Visualization orbit readout
Latitude
Unknown
Longitude
Unknown
Altitude
Unknown
Speed
Unknown
Apparent Right ascension
Unknown
Apparent Declination
Unknown
Sunlit
N/A
Visualization observer readout
Local Sidereal Time
03:25:43
Azimuth
Unknown
Elevation
Unknown
Doppler factor
Unknown
Orbital elements
Apogee altitude
18,163.941 km
Perigee altitude
242.14 km
Semi-major axis
15,581.178 km
Eccentricity
0.57511
Inclination
19.0081°
RAAN
227.5781°
Arg. of periapsis
143.1878°
True anomaly
216.82863°
Mean anomaly
275.2636°
Eccentric anomaly
245.32175°
Mean motion
1.11594 °/min
Orbital period
322.6 mins
BSTAR
0.0021932
Loading maneuver chart data...
Computing Atmospheric mass density...
Loading historical data...
Loading historical data...
Loading historical data...
Loading historical data...
Loading historical data...
Loading historical data...
Loading historical data...
Other satellites on launch #18 in the year 2015 (2015-03-28 UTC)

Documentation

Showing up to 5 results
|